Regional Weather Roundup
Issued by NWS Boston, MA

Home | Current Version | Previous Version | Text Only | Print | Product List | Glossary On
Versions: 1 2 3 4 5 6 7 8 9 10 11 12 13 14 15 16 17 18 19 20 21 22 23 24 25 26 27
000
ASUS41 KBOX 272010
RWRBOX

REGIONAL WEATHER ROUNDUP
NATIONAL WEATHER SERVICE TAUNTON MA
400 PM EDT FRI MAY 27 2016

NOTE:  "FAIR" INDICATES FEW OR NO CLOUDS BELOW 12,000 FEET WITH NO
SIGNIFICANT WEATHER AND/OR OBSTRUCTIONS TO VISIBILITY.  THE FOLLOWING
OBSERVATION LOCATIONS DO NOT REPORT PRESENT WEATHER...PROVINCETOWN...
SMITHFIELD...BLOCK ISLAND...KEENE...AND OXFORD.

MAZALL-272100-
EASTERN MASSACHUSETTS

CITY           SKY/WX    TMP DP  RH WIND       PRES   REMARKS
BOSTON         PTSUNNY   65  57  75 E8        30.05F
BEVERLY        MOSUNNY   73  58  59 VRB6      30.04F
LAWRENCE       MOSUNNY   75  58  55 E7        30.05F
BEDFORD        CLOUDY    79  59  50 SE12      30.02F
BLUE HILL        N/A     74  60  61 SE7       30.04F
NORWOOD        CLOUDY    78  61  55 VRB6      30.03F
MARSHFIELD     PTSUNNY   64  59  82 VRB5      30.05S
PLYMOUTH       CLOUDY    81  63  54 SW14      30.06F
TAUNTON        MOSUNNY   83  63  50 S10       30.05F
NEW BEDFORD    CLOUDY    78  64  61 SW13G22   30.06F
$$

MAZALL-272100-
CAPE COD AND THE ISLANDS

CITY           SKY/WX    TMP DP  RH WIND       PRES   REMARKS
FALMOUTH       CLOUDY    73  63  68 SW16      30.08F
HYANNIS        CLOUDY    73  62  68 SW14      30.07S
CHATHAM        MOSUNNY   65  59  81 SW9G18    30.10F
PROVINCETOWN   CLOUDY    74  62  66 SW14      30.07F
NANTUCKET      MOSUNNY   65  58  78 SW14      30.11S
MARTHAS VNYRD  CLOUDY    68  59  73 SW13      30.10R
$$

MAZALL-272100-
CENTRAL AND WESTERN MASSACHUSETTS

CITY           SKY/WX    TMP DP  RH WIND       PRES   REMARKS
WORCESTER      PTSUNNY   82  62  50 S9        30.05F
FITCHBURG      MOSUNNY   88  63  43 S10       30.01F
ORANGE         MOSUNNY   85  62  46 S12       30.00F
SPRINGFIELD    PTSUNNY   88  64  45 S18       29.99F
WESTFIELD      MOSUNNY   88  64  44 S15       29.99F
NORTH ADAMS    MOSUNNY   83  63  50 SW7       30.00S
PITTSFIELD     MOSUNNY   82  62  50 W14       30.03S
$$

RIZALL-272100-
RHODE ISLAND

CITY           SKY/WX    TMP DP  RH WIND       PRES   REMARKS
PROVIDENCE     PTSUNNY   77  62  59 SE15      30.05F
NEWPORT        MOSUNNY   69  61  75 S12       30.08S
BLOCK ISLAND   MOSUNNY   65  59  81 SW18G24   30.09F
SMITHFIELD     MOSUNNY  N/A N/A N/A SE8       30.03F
WESTERLY       SUNNY     70  57  63 SW13      30.08F
$$

CTZALL-272100-
CONNECTICUT

CITY           SKY/WX    TMP DP  RH WIND       PRES   REMARKS
BRADLEY INTL   CLOUDY    88  64  44 S18       30.00F
HARTFORD       MOSUNNY   89  66  46 S13       30.01F HX  91
BRIDGEPORT     SUNNY     71  62  73 E8        30.04F
DANBURY        MOSUNNY   82  64  54 S10       30.04S
GROTON         MOSUNNY   66  61  84 S8        30.06F
NEW HAVEN      SUNNY     78  63  59 SE8       30.05S
CHESTER        FAIR      79  64  61 S8G15     30.06F
MERIDEN        SUNNY     86  64  47 SW12      30.03F
WILLIMANTIC    MOSUNNY   88  63  43 S14       30.03F
OXFORD         MOSUNNY   82  63  51 SW12      30.07S
$$

MEZ002-015-021-024-NHZ003-005-008-011-012-014-VTZ005-008-272100-
NORTHERN NEW ENGLAND

CITY           SKY/WX    TMP DP  RH WIND       PRES   REMARKS
PORTLAND ME    CLOUDY    59  53  80 E10       30.07F
BANGOR ME      PTSUNNY   65  53  65 S12       30.08F
CONCORD NH     CLOUDY    82  60  47 S7        30.01F
MANCHESTER NH  PTSUNNY   84  61  45 S13       29.99F
NASHUA NH      CLOUDY    86  65  49 VRB5      30.00F
PORTSMOUTH NH  PTSUNNY   64  55  70 SE10      30.04F
JAFFREY NH     MOSUNNY   85  62  46 S9        30.03F
KEENE NH       MOSUNNY   86  61  42 S10G16    30.00F
BURLINGTON VT  FAIR      90  62  39 S15G28    29.91S HX  90
MT. WASHINGTON PTSUNNY   57  52  82 SW39G46     N/A
$$

NYZ052-076-272100-
EASTERN NEW YORK

CITY           SKY/WX    TMP DP  RH WIND       PRES   REMARKS
ALBANY         PTSUNNY   85  65  51 S14       29.98F
NEW YORK CITY  MOSUNNY   80  68  66 S13G21    30.03S
$$

ANZALL-272100-
MARINE OBSERVATIONS

STATION/POSITION TIME  TEMP    WIND        PRES    VSBY  WAVE
                       AIR SEA DIR/SP/G                  HT/PER
                 (UTC) (F)     (DEG/KT/KT) (MB)    (MI)  (FT/S)
BOSTON BUOY      1950   57 58   50/ 10/ 10 1017.6F         1/ 4
BUZZARDS BAY     1900   59     220/  9/ 10 1019.5F
NANTUCKET SOUND  1950   60 58  230/ 14/ 16 1018.8S         1/ 3
MASS BAY-STELLWA 1904   55 57                N/A     5/8   2/ 4
ISLE OF SHOALS   2000   54      80/  8/  9 1017.7F
S OF BLOCK IS    1925      56                N/A           3/ 4
$$

......................KEY.........................
  SKY/WX - SKY CONDITION/PRESENT WEATHER
  TMP    - TEMPERATURE IN FAHRENHEIT
  DWPT   - DEWPOINT IN FAHRENHEIT
  RH     - RELATIVE HUMIDITY IN PERCENT
  WIND   - DIRECTION AND SPEED IN MPH
  PRES   - MEAN SEA LEVEL PRESSURE IN INCHES OF HG
  WCI    - WIND CHILL INDEX
  VSB    - VISIBILITY IN MILES
  HX     - HEAT INDEX
  TC     - TEMPERATURE IN CELSIUS
  VRB    - VARIABLE WIND DIRECTION
  N/A    - NOT AVAILABLE




USA.gov is the U.S. government's official web portal to all federal, state and local government web resources and services.